ORBCOMM FM41 [-] (33061 NORAD) Tracking and Keplerian Element Data

This shows tracking and keplerian element data for the satellite.

Feedback or suggestion? Click here.




ElementValue
Catalog33061
NameORBCOMM FM41 [-]
Epoch Orbit81692
Epoch Day238.38036712
Epoch Year2023
RAAN215.9688
Inclination48.4448
Eccentricity0.0004365
Argument of Perigee70.3731
Mean Anonmoly49.1589
Mean Motion14.75671973
Decay Rate1.829E-05
L11 33061U 08031B 23238.38036712 .00001829 00000+0 29456-3 0 9991
L22 33061 48.4448 215.9688 0004365 70.3731 49.1589 14.75671973816927



Live tracking and technical data element details for ORBCOMM FM41 [-] (NORAD 33061). ORBCOMM FM41 [-] can be tracked NOW for your location showing map with azimuth and elevation plus other details from your city location.







IsCatalogInMostPopularTable: catalog: 33061, numindb: 335
Update: records affected: 1



GetName: 33061 ORBCOMM FM41 [-]

Hit Count: updated at: Fri, 16 May 2025 11:25:29 GMT